Powrót do katalogu

STARLINK-3109

AktywnyŁącznośćVLEO
NORAD 49143·PAYLOAD·🇺🇸 United States

Wystrzelony Sep 14, 2021 z Vandenberg Space Force Base

Loading…

Następne Przeloty (najbliższe 24 godziny)

TLE

ŚwieżeSource: CelesTrak SupGP

Epoka: Sep 15, 2026, 01:11 UTC

1 49143C 21082P   26258.04979167  .00073781  00000+0  63167-2 0  2588
2 49143  70.0013 158.4033 0002816 268.9265 127.0646 14.97465734    10

Śledź STARLINK-3109 w czasie rzeczywistym z AllMySat

Download on the App Store